Tracking 19170 objects as of 22-May-2018
HD Live streaming from Space Station
objects crossing your sky now

UNAMSAT

Track UNAMSAT now!
10-day predictions
UNAMSAT is classified as:


NORAD ID: 24305
Int'l Code: 1996-052B
Perigee: 971.0 km
Apogee: 1,015.3 km
Inclination: 82.9 °
Period: 104.8 minutes
Semi major axis: 7364 km
RCS: 0.174 m2 (medium)
Launch date: September 5, 1996
Source: Mexico (MEX)
Launch site: PLESETSK MISSILE AND SPACE COMPLEX (PKMTR)
aabbcc
Your satellite tracking list
Your tracking list is empty




NASA's NSSDC Master Catalog

Two Line Element Set (TLE):
1 24305U 96052B   18141.83833920 +.00000044 +00000-0 +30392-4 0  9996
2 24305 082.9356 102.0049 0030071 177.4554 182.6760 13.73797646088019
Source of the keplerian elements: AFSPC